"Pseudo-MPEC" for P10LjW6

Created 2019 Jan 15 15:18:22 UT using Find_Orb

Click here for an explanation of pseudo-MPECs

 
 Astrometry: 
     P10LjW6  C2019 01 108_%Qiu9-Tmw_8yVcTwpQI7oAstrometry[l!+$eSF$8%/\!IiU@oF51
     P10LjW6  C2019 01 10g$XMaJ(l)HEOL8.5N/^=?T74c09Z]pH;vZB]_J*hr)=xAK4I5L@TF51
     P10LjW6  C2019 01 10J$,L?(-a@lfJZ8SQkOV%xE+?y2PuV1'B=-y:#?`Cit\wKML\,J'7F51
     P10LjW6  C2019 01 10lg;4^IP^=.#XQGRgDX:p:tulVplgP^.FLmo#QfeTD!w*y/xo#yjxF51
     P10LjW6 |C2019 01 11El*kw`u(M`7qWlHalW9aZl+37GBRUrx!i@T*o61VM\3@+NfgMQ43807
     P10LjW6 |C2019 01 11Xk4EeBO[Y:k`wXZredacted;(,FxMNOaam3u-k?eG1TlPPvec6VJ807
     P10LjW6 |C2019 01 11H3Q=NE*IRuirBTi*Vep@UDio(8Cg`y8=N7!Riwu;sOub3R']L]p3807
     P10LjW6  C2019 01 11.20247 06 32 32.94 -24 11 14.7    ~1B5I 20.5 GVNEOCPI52
     P10LjW6  C2019 01 11.20271 06 32 32.90 -24 11 12.5    ~1B5I 19.6 GVNEOCPI52
     P10LjW6  C2019 01 11.20296 06 32 32.86 -24 11 10.2    ~1B5I 20.2 GVNEOCPI52
     P10LjW6  C2019 01 11.20320 06 32 32.88 -24 11 07.3    ~1B5I 20.1 GVNEOCPI52
     P10LjW6 ^C2019 01 11.36362706 32 20.677-23 43 32.07   ~1BKI 19.70GVNEOCP568
     P10LjW6 ^C2019 01 11.36463106 32 20.587-23 43 21.74   ~1BKI 19.58GVNEOCP568
     P10LjW6 ^C2019 01 11.36563806 32 20.494-23 43 11.31   ~1BKI 19.37GVNEOCP568
     P10LjW6 ^C2019 01 11.36665206 32 20.402-23 43 00.89   ~1BKI 19.75GVNEOCP568
     P10LjW6 KC2019 01 11@qMo.N!Q%vmy%h;ltwPFZn:[oXk57!U.N$pW%H\!o5Z7QM2N#XbKL29
     P10LjW6 KC2019 01 113Shh[G_8L-u(V0bm;5%Cl8+qgaWePcxV@xwg]6:Devu^n7NM4te@L29
     P10LjW6 KC2019 01 11foA\6tZW1JqV5m0d,XU4`j.K0TXE2)1RyRiiLIF^Mrnb?XL%k(9QL29
     P10LjW6 KC2019 01 11[BrlOKEnKAncH@10`D6e5rY@D[PZk?hk.qp-i3d2v2Sbvm,22A_kL29
     P10LjW6 |C2019 01 124n/BeY*Tw=r0m*=Uda8v\QBQ5wclick-N;AB%ca^Go\gF2q=Aw')807
     P10LjW6 |C2019 01 1200H=^c^[hv'#l=B3cT_Zu6;XLRV#f6K^N4vcWR`^V,Uxs,XR[oGn807
     P10LjW6 |C2019 01 12LCt0Lb`5s9O1I[fG/^-gjh\7\f1\qd+CbY-4vHIoaS[0hG1w`reP807
     P10LjW6 KC2019 01 14Y_=?\YxDmtlqD-J%q8\6@TUqnV9EDl%]cx?CP=6K/-Ip1(AJ.#:)474
     P10LjW6 KC2019 01 14Ko+*Rn\Lk3i(^Sia#UiE%QsZ4h4nmMsc2Xo[:uLMe.erRLu-otf!474
     P10LjW6 KC2019 01 143tQ,]dd-yY(K,G4L?fRoMHC9#@hereR8_YbrSnYk2wR1VZ6=\JiU474
     P10LjW6 KC2019 01 14VFh._(A!Tuog@'er8u,)lhS[DDWH;Tpr!9Z:uVoOQeqqF6C91OB$474
     P10LjW6 KC2019 01 14riYi;Z\ONW+C`6bWacm*Y4x7,M*U/txh=9yB*0N'Kdj\-*0ccDaTE23
     P10LjW6 KC2019 01 14[uiRhk,1O_WA#!$)..nqKlXYwq]xsrsbKb.WM]Mf:oi;MM#[ut`gE23
     P10LjW6 KC2019 01 14_cN2LSN40!q8gfa1'4^+I3Y/f(?'ruf\IRb#'vg(mYpYt';.?1RYE23
     P10LjW6 KC2019 01 14uFW$y?[o.b6Xv0_7?X7P0JK=J'B*wQ3UP,6V!l(w:96Q2oBbYlgPK61
     P10LjW6 KC2019 01 14R9%\Eo8Gafor0eD-Y]xdom,1RSWI*$M.0fglf\^gwn,AVe$TOM!5K61
     P10LjW6 IC2019 01 14nBHuPX=J(S.IQWUL3@+AIXB8q#Yc$18L-i_I`/+nrTyO/Kb)V],iL01
     P10LjW6 pC2019 01 14R[ikbv4GyNV*B(^AWGGsPWV65Z;L8s$MI5m76lfGQbOi^-7+ZAb7L01
     P10LjW6 KC2019 01 14^+WfGZUnrla8mlTB[8)LCdH`UZ#'[4?@E+g%:\Q,wiSCDv$6Y+4C595
     P10LjW6 KC2019 01 14G2nfR9Ksrf/JL`m)kVb(5G3TjeAAEh-m/9`Z23v]M6P-@Bc\$R)@595
     P10LjW6 KC2019 01 14P^x/w^DcqD9.KP92J5u,9(iYmLCD*tO^2Mnce876@EJ^NtM$Zf,I204
     P10LjW6 HC2019 01 14'q(T?EsWL0HexplanationF0pHlDvJXbV'b00*bC!Cn)Q4OJEU5m204
     P10LjW6 bC2019 01 14.96899706 28 03.40 -12 06 56.2    ~1F1I 18.7 GVNEOCPJ95
     P10LjW6 KC2019 01 14.98269306 28 02.23 -12 04 01.2    ~1F1I 20.1 GVNEOCPJ95
     P10LjW6 KC2019 01 14.99403206 28 01.28 -12 01 36.7    ~1F1I 19.5 GVNEOCPJ95
     P10LjW6  C2019 01 15.24396 06 27 44.90 -11 07 49.6    ~1F6I 18.8 GVNEOCPI52
     P10LjW6  C2019 01 15.24415 06 27 44.88 -11 07 47.4    ~1F6I 18.7 GVNEOCPI52
     P10LjW6  C2019 01 15.24433 06 27 44.85 -11 07 44.8    ~1F6I 19.7 GVNEOCPI52
     P10LjW6  C2019 01 15.24452 06 27 44.87 -11 07 42.2    ~1F6I 19.2 GVNEOCPI52

Station data:
(204) Schiaparelli Observatory  (N45.867933 E8.770800)  Italy.  Observer L.
   Buzzi. 0.60-m f/4.64 Newtonian + CCD.
(474) Mount John Observatory, Lake Tekapo  (S43.987388 E170.464960)  New
   Zealand.  Observers A. C. Gilmore, P. M. Kilmartin. Measurer P. M.
   Kilmartin. 1.0-m f/7.7 reflector + CCD.
(568) Mauna Kea  (N19.826116 W155.472200)  US/Hawaii.
(595) Farra d'Isonzo  (N45.915734 E13.525780)  Italy.  Observers L.
   Bittesini, F. Fabris, E. Pettarin, F. Piani. Measurer E. Pettarin. 0.30-m
   f/4.5 reflector + CCD.
(807) Cerro Tololo Observatory, La Serena  (S30.169136 W70.805900)  Chile.
   1.5-m Ritchey-Chrétien.
(E23) Arcadia  (S33.621199 E151.071190)  Australia/NSW.
(F51) Pan-STARRS 1, Haleakala  (N20.707235 W156.255910)  US/Hawaii.
   Observers N. Primak, A. Schultz, S. Watters, J. Thiel, T. Goggia. Measurer
   PS1 Science Consortium. 1.8-m Ritchey-Chrétien + CCD.
(I52) Steward Observatory, Mt. Lemmon Station  (N32.442547 W110.788920)
   US/Arizona.  Observers B. M. Africano, E. J. Christensen, G. A. Farneth,
   D. C. Fuls, A. R. Gibbs, A. D. Grauer, H. Groeller, J. A. Johnson, R. A.
   Kowalski, S. M. Larson, G. J. Leonard, R. L. Seaman, F. C. Shelly. 1.0-m
   reflector + CCD.
(J95) Great Shefford  (N51.474969 W1.447003)  UK.  Observer P. Birtwhistle.
   0.40-m f/6.0 Schmidt-Cassegrain + CCD.
(K61) Rokycany Observatory  (N49.751403 E13.602600)  Czech Republic.
(L01) Višnjan Observatory, Tičan  (N45.290900 E13.749300)  Croatia.
   Observers K. Korlević, E. Pettarin. Measurer E. Pettarin. 1.0-m f/2.9
   reflector + CCD.
(L29) Drebach-South Observatory, Windhoek  (S23.460102 E18.016900)  Namibia.

Orbital elements:  P10LjW6
   Perihelion 2019 Jan 1.462990 +/- 0.107 TT = 11:06:42 (JD 2458484.962990)
Epoch 2019 Jan 15.0 TT = JDT 2458498.5   Earth MOID: 0.1648   AutoNEOCP
M   4.96884513 +/- 0.10             (J2000 ecliptic)
n   0.36705631 +/- 0.00464          Peri.  338.00866 +/- 0.09
a   1.93188342 +/- 0.0163           Node   119.08331 +/- 0.017
e   0.4167637 +/- 0.00452           Incl.   38.24820 +/- 0.14
P   2.69/980.76d           H 21.5   G  0.15   U  9.1  
q 1.12674435 +/- 0.000775    Q 2.73702250 +/- 0.0322
From 44 observations 2019 Jan. 10-15; mean residual 0".42
Residuals in arcseconds: 
190110 F51  .04+  .10+    190111 L29  .09+  .32+    190114 K61  .63-  1.6+    
190110 F51  .07+  .33+    190111 L29  .17-  .02+    190114 L01  .55-  .00     
190110 F51  .03+  .19+    190111 L29  .11-  .06+    190114 L01  .32-  .58+    
190110 F51  .06-  .31+    190111 L29  .33-  .68+    190114 595  .56+  .14+    
190111 807  .04-  .38-    190112 807  .27+  .11-    190114 595  .67-  .92+    
190111 807  .19+  .14+    190112 807  .10+  .24-    190114 204  .07-  .40+    
190111 807  .15+  .06+    190112 807  .10+  .17-    190114 204  .21-  .08-    
190111 I52  .00   .01+    190114 474  .31+  .11-    190114 J95  .67+  .04+    
190111 I52  .26-  .24-    190114 474  .06+  .16-    190114 J95  .11-  .14-    
190111 I52  .50-  .49-    190114 474  .31+  .33-    190114 J95  .52-  .80-    
190111 I52  .06+  .03-    190114 474  .05-  .07-    190115 I52  .30+  .17+    
190111 568  .06+  .20-    190114 E23  .40+  .10+    190115 I52  .24+  .09-    
190111 568  .08+  .23-    190114 E23  1.4+  .32+    190115 I52  .03+  .19+    
190111 568  .06+  .20-    190114 E23  .19-  .02-    190115 I52  .56+  .33+    
190111 568  .07+  .25-    190114 K61  .92-  1.5+    

Ephemerides (geocentric):
Date (UTC) HH   RA              Dec         delta   r     elong  mag " sig PA
---- -- -- --  -------------   -----------  ------ ------ -----  --- ---- ---
2019 01 15 15  06 27 18.620   -09 44 24.38  .18376 1.1364 143.4 19.5 .329  13
2019 01 15 16  06 27 15.794   -09 35 15.74  .18362 1.1365 143.5 19.5 .342  13
2019 01 15 17  06 27 12.970   -09 26 06.18  .18349 1.1365 143.6 19.5 .355  14
2019 01 15 18  06 27 10.150   -09 16 55.68  .18335 1.1366 143.7 19.5 .368  14
2019 01 15 19  06 27 07.333   -09 07 44.27  .18322 1.1366 143.8 19.5 .382  14
2019 01 15 20  06 27 04.518   -08 58 31.94  .18308 1.1367 143.9 19.5 .396  14
2019 01 15 21  06 27 01.707   -08 49 18.70  .18295 1.1368 144.0 19.4 .409  15
2019 01 15 22  06 26 58.899   -08 40 04.57  .18282 1.1368 144.1 19.4 .424  15
2019 01 15 23  06 26 56.094   -08 30 49.55  .18269 1.1369 144.2 19.4 .438  15
2019 01 16 00  06 26 53.292   -08 21 33.64  .18256 1.1369 144.3 19.4 .453  15
2019 01 16 01  06 26 50.493   -08 12 16.85  .18244 1.1370 144.4 19.4 .467  16
2019 01 16 02  06 26 47.697   -08 02 59.19  .18231 1.1370 144.5 19.4 .482  16
2019 01 16 03  06 26 44.905   -07 53 40.68  .18219 1.1371 144.6 19.4 .497  16
2019 01 16 04  06 26 42.115   -07 44 21.30  .18206 1.1372 144.7 19.4 .513  16
2019 01 16 05  06 26 39.329   -07 35 01.08  .18194 1.1372 144.8 19.4 .528  16
2019 01 16 06  06 26 36.547   -07 25 40.02  .18182 1.1373 144.9 19.4 .544  17
2019 01 16 07  06 26 33.767   -07 16 18.13  .18171 1.1373 145.0 19.4 .560  17
2019 01 16 08  06 26 30.991   -07 06 55.41  .18159 1.1374 145.1 19.4 .576  17
2019 01 16 09  06 26 28.218   -06 57 31.88  .18148 1.1375 145.2 19.4 .592  17
2019 01 16 10  06 26 25.448   -06 48 07.54  .18136 1.1375 145.3 19.4 .609  17
2019 01 16 11  06 26 22.682   -06 38 42.39  .18125 1.1376 145.4 19.4 .625  18
2019 01 16 12  06 26 19.919   -06 29 16.46  .18114 1.1376 145.5 19.4 .642  18
2019 01 16 13  06 26 17.159   -06 19 49.75  .18103 1.1377 145.6 19.4 .659  18
2019 01 16 14  06 26 14.403   -06 10 22.25  .18092 1.1378 145.7 19.4 .676  18
2019 01 16 15  06 26 11.650   -06 00 53.99  .18082 1.1378 145.8 19.4 .694  18
2019 01 16 16  06 26 08.900   -05 51 24.98  .18071 1.1379 145.9 19.4 .711  18
2019 01 16 17  06 26 06.154   -05 41 55.21  .18061 1.1379 146.0 19.4 .729  18
2019 01 16 18  06 26 03.412   -05 32 24.70  .18051 1.1380 146.1 19.4 .747  18
2019 01 16 19  06 26 00.672   -05 22 53.45  .18041 1.1381 146.2 19.4 .765  19
2019 01 16 20  06 25 57.937   -05 13 21.49  .18031 1.1381 146.3 19.4 .784  19
2019 01 16 21  06 25 55.205   -05 03 48.81  .18021 1.1382 146.4 19.4 .802  19
2019 01 16 22  06 25 52.476   -04 54 15.42  .18011 1.1382 146.5 19.4 .821  19
2019 01 16 23  06 25 49.751   -04 44 41.33  .18002 1.1383 146.6 19.4 .840  19
2019 01 17 00  06 25 47.030   -04 35 06.55  .17993 1.1384 146.7 19.4 .859  19
2019 01 17 01  06 25 44.312   -04 25 31.10  .17984 1.1384 146.8 19.3 .878  19
2019 01 17 02  06 25 41.598   -04 15 54.97  .17975 1.1385 146.9 19.3 .897  19
2019 01 17 03  06 25 38.887   -04 06 18.18  .17966 1.1385 147.0 19.3 .917  20
2019 01 17 04  06 25 36.180   -03 56 40.74  .17957 1.1386 147.1 19.3 .937  20
2019 01 17 05  06 25 33.477   -03 47 02.66  .17949 1.1387 147.2 19.3 .956  20
2019 01 17 06  06 25 30.777   -03 37 23.94  .17940 1.1387 147.2 19.3 .976  20
2019 01 17 07  06 25 28.081   -03 27 44.60  .17932 1.1388 147.3 19.3 1.00  20
2019 01 17 08  06 25 25.389   -03 18 04.65  .17924 1.1389 147.4 19.3 1.02  20
2019 01 17 09  06 25 22.700   -03 08 24.09  .17916 1.1389 147.5 19.3 1.04  20
2019 01 17 10  06 25 20.015   -02 58 42.93  .17908 1.1390 147.6 19.3 1.06  20
2019 01 17 11  06 25 17.334   -02 49 01.19  .17901 1.1390 147.7 19.3 1.08  20
2019 01 17 12  06 25 14.657   -02 39 18.87  .17893 1.1391 147.8 19.3 1.10  20
2019 01 17 13  06 25 11.984   -02 29 35.99  .17886 1.1392 147.9 19.3 1.12  20
2019 01 17 14  06 25 09.314   -02 19 52.55  .17879 1.1392 148.0 19.3 1.14  21